Theta_e
339 338 339 334 319 318 312 313 318 317 321 330 331 331 329 331 327 323 349 347 346 352 350 348 359 361 360 359 358 358 359 359 358 358 358 358 358 358 358 357 357 357 356 355 355 355 354 354 353
336 335 334 329 313 306 312 316 315 321 326 332 332 329 331 329 339 341 342 347 348 351 353 350 357 360 360 359 358 357 357 357 357 357 356 356 357 357 357 357 356 355 355 354 353 352 352 351 350
331 334 324 319 312 309 311 317 319 324 328 329 328 335 333 331 340 344 350 350 349 350 359 358 359 358 359 358 358 357 357 356 356 356 356 356 356 356 356 356 356 355 355 355 354 354 353 353 353
333 329 324 314 312 317 317 320 322 322 327 329 330 327 338 346 341 348 349 347 347 348 360 358 359 357 357 358 358 357 356 356 356 355 355 355 355 355 356 356 356 357 356 356 355 355 355 354 354
330 324 316 314 314 318 321 322 323 319 322 326 329 326 332 341 346 348 350 351 348 350 354 354 358 357 355 354 355 356 357 357 357 357 356 355 355 355 355 356 357 357 357 357 357 358 358 358 356
320 322 312 309 314 319 322 323 322 320 323 326 327 328 333 345 347 349 352 353 352 350 354 355 357 357 357 356 355 355 357 356 355 356 356 356 356 356 355 355 355 355 354 355 355 355 356 357 357
318 316 312 314 314 315 319 324 320 318 320 323 329 325 336 341 347 350 350 348 348 349 351 356 357 359 359 358 356 355 355 355 354 355 355 356 356 356 356 356 355 355 355 355 355 356 357 358 358
321 318 313 316 312 313 321 322 322 318 319 329 329 323 330 341 347 348 345 343 343 344 345 345 351 357 359 358 358 358 357 357 357 357 358 357 358 358 357 357 356 355 355 355 356 357 358 358 358
323 313 311 311 310 316 322 319 322 323 322 324 329 329 338 345 346 343 341 342 344 345 348 350 347 348 349 351 354 355 357 358 359 358 358 357 353 351 356 359 355 354 353 355 355 356 357 357 357
317 312 313 316 319 318 320 321 321 319 319 321 326 336 341 344 343 341 339 338 340 342 346 350 352 350 349 347 351 352 351 351 351 352 355 354 354 355 352 351 352 353 354 356 357 358 357 357 354
317 313 315 315 319 321 320 320 322 319 317 321 323 331 338 340 340 337 337 339 339 344 346 348 351 351 348 341 340 337 338 338 341 343 348 350 348 352 348 346 350 351 350 347 348 349 354 350 351
312 315 315 317 317 321 319 321 319 321 319 324 327 332 336 337 335 333 333 336 341 342 343 345 344 342 344 337 334 334 333 334 334 339 342 343 337 339 337 336 338 341 341 342 342 342 345 350 351
313 314 315 316 317 321 320 319 318 321 326 327 329 333 334 336 335 337 338 338 340 337 337 335 338 342 343 341 336 336 336 334 337 335 338 336 336 338 335 335 333 333 334 334 335 338 342 342 344
315 314 315 317 317 319 317 318 320 321 328 326 330 331 334 335 335 337 335 337 337 335 333 336 338 342 340 343 343 337 336 335 333 333 336 337 336 340 335 332 330 331 333 333 333 333 335 335 336
315 311 313 315 317 317 319 316 317 325 329 326 329 330 333 336 337 334 332 333 330 333 337 339 338 339 342 339 339 336 334 332 333 333 335 335 336 337 338 329 326 328 331 328 331 331 334 332 332
312 312 308 315 315 318 317 310 317 325 326 323 329 330 332 336 336 334 332 329 330 333 338 339 334 334 338 341 338 335 334 335 331 333 333 332 333 333 337 328 326 329 330 326 325 326 326 328 332
312 306 307 309 314 314 315 311 322 327 325 322 326 330 333 334 337 335 330 329 332 335 334 334 335 333 338 339 337 337 343 334 333 333 332 333 333 329 332 328 327 334 326 326 326 327 327 323 327
307 306 308 307 312 312 311 311 315 322 320 321 323 328 332 332 334 334 329 331 333 334 334 334 334 337 341 338 342 334 331 330 329 328 328 332 332 332 332 330 331 330 326 325 328 332 325 323 323
310 307 307 310 313 310 310 311 313 316 317 319 321 326 330 332 335 333 329 332 333 333 333 335 336 339 338 335 332 330 328 329 327 328 331 331 330 331 333 329 330 330 326 331 328 328 324 321 322
310 308 308 310 312 312 311 310 314 315 316 318 321 325 329 331 332 329 327 331 332 332 335 338 338 340 340 337 337 335 333 331 330 330 337 333 327 329 329 329 329 332 325 333 329 331 323 320 323
310 307 307 307 310 312 310 308 311 316 317 319 324 327 329 329 329 326 327 329 331 333 335 336 338 341 341 340 334 332 332 328 322 324 325 327 326 326 328 326 328 328 327 320 327 327 322 316 323
307 311 308 307 306 302 309 299 308 311 313 317 320 325 327 328 328 327 328 329 332 333 335 335 334 334 332 333 330 329 323 320 321 320 321 323 324 324 324 327 326 328 322 324 323 323 326 328 320
308 311 309 308 306 305 305 302 307 311 309 313 318 321 325 328 328 328 328 329 330 328 326 326 325 329 330 329 328 323 325 321 320 319 324 327 325 326 320 323 323 322 318 319 319 321 324 323 325
314 311 310 310 307 300 305 301 304 308 309 311 316 319 322 325 327 328 330 328 325 324 323 324 324 325 327 326 325 326 323 322 318 318 317 316 317 318 322 320 320 318 318 317 317 319 320 323 322
312 307 300 300 299 298 305 302 306 310 311 312 314 316 319 322 323 324 326 322 322 321 321 322 322 323 324 323 322 322 324 323 319 318 315 316 315 316 318 320 319 316 317 316 316 316 317 317 320
309 308 301 293 295 298 305 300 305 311 313 314 315 317 319 321 321 321 320 320 320 320 321 321 321 321 321 321 320 322 322 316 315 316 315 314 314 315 318 318 318 317 317 316 317 314 313 317 317
308 305 309 302 304 300 304 305 310 312 312 312 313 315 317 319 319 319 319 318 319 320 320 320 319 319 319 319 322 322 319 318 316 315 313 313 317 317 317 317 316 316 316 315 316 312 313 317 315
310 310 302 305 296 294 300 301 303 307 309 312 313 314 316 318 318 318 317 319 319 319 320 319 318 316 317 319 319 317 317 316 316 315 313 313 314 317 315 314 311 310 309 309 313 313 312 314 313
308 306 307 306 303 297 295 300 310 310 311 311 313 313 316 316 316 317 317 318 318 318 317 317 316 316 317 318 318 317 315 315 315 314 313 313 313 314 313 308 308 307 306 308 309 313 312 311 311
309 306 307 301 300 304 301 301 313 312 313 313 313 314 315 315 316 316 317 316 316 317 316 315 316 316 317 317 316 314 315 314 313 311 313 315 314 311 308 307 307 306 306 307 306 310 310 309 310
Wind_Speed
11 14 11 9 5 6 16 10 16 17 18 13 9 16 18 24 13 8 6 6 4 16 12 12 8 8 8 8 8 8 7 6 6 5 6 7 7 7 6 5 5 5 5 5 4 4 4 4 4
16 11 10 3 5 10 13 18 17 16 9 8 11 7 16 15 18 10 12 7 6 9 12 13 9 7 7 8 7 6 5 4 4 3 3 3 4 5 5 4 3 3 3 4 3 2 1 1 2
15 13 12 8 9 5 15 17 17 13 9 5 16 13 13 13 16 9 10 7 8 8 17 14 11 9 7 8 8 8 6 4 3 2 1 1 1 1 2 2 2 2 2 2 2 2 2 2 3
8 10 10 9 15 17 17 11 9 12 13 8 12 15 11 10 8 13 8 5 6 10 19 13 11 9 9 8 7 5 5 4 3 3 3 3 4 4 3 4 4 5 5 4 4 5 6 5 6
11 12 8 6 16 11 15 10 8 14 13 11 15 20 16 14 13 11 8 7 6 9 15 13 9 8 7 7 7 7 6 7 7 6 5 5 5 6 6 6 7 7 7 7 7 7 7 8 8
14 5 15 2 15 14 10 8 9 12 13 15 18 18 13 12 12 10 10 6 8 7 13 12 10 8 8 8 7 6 5 5 6 6 6 7 7 8 9 9 9 10 10 10 9 10 9 9 10
18 11 21 3 11 14 10 1 12 10 13 11 15 18 11 13 10 9 10 8 7 9 8 11 13 10 8 6 5 5 5 7 7 7 7 8 9 10 11 11 11 12 11 11 11 11 11 11 11
12 8 5 10 3 17 10 7 3 12 14 4 6 15 12 13 11 11 10 8 7 7 9 10 8 15 14 13 9 6 6 7 8 9 10 10 10 14 14 13 15 13 11 11 12 13 13 13 13
12 13 3 4 23 7 8 10 16 10 9 8 6 19 18 14 11 11 10 10 9 7 6 7 9 7 3 9 10 10 11 11 11 12 13 9 11 11 16 15 7 9 11 12 13 13 14 14 16
12 11 11 8 8 13 7 12 12 9 11 12 11 15 15 13 11 9 7 6 8 9 8 8 9 5 6 3 2 4 5 1 3 8 7 9 9 6 7 8 9 10 12 14 17 16 16 15 13
9 10 8 5 8 6 10 8 7 10 9 14 15 15 14 13 9 9 8 8 12 8 6 9 7 5 6 5 5 4 4 4 3 8 8 8 7 6 4 3 5 7 8 9 8 10 11 12 10
9 3 3 6 4 7 8 4 7 6 10 13 16 15 13 11 9 4 7 10 8 9 5 9 8 5 5 4 5 5 5 5 6 4 7 5 6 7 8 7 9 8 6 8 8 7 11 10 13
14 4 4 2 4 6 6 4 5 6 8 4 16 12 12 11 8 7 5 7 7 8 9 8 7 6 3 5 5 6 7 6 5 5 8 7 8 6 8 7 8 9 9 9 8 9 6 10 11
5 3 6 6 6 2 7 7 4 5 6 6 7 11 11 10 8 8 7 9 7 7 7 7 8 4 6 4 4 4 5 5 6 6 6 9 7 5 8 8 8 8 7 9 10 10 9 9 11
3 10 6 7 4 5 7 13 11 6 7 10 10 11 10 8 9 8 9 9 10 8 7 6 4 5 4 4 5 5 4 8 6 6 6 4 7 6 7 9 8 8 9 12 9 10 9 10 7
13 10 14 14 5 7 7 14 19 15 11 12 13 12 11 9 10 8 10 9 9 10 6 4 5 4 4 4 6 6 7 7 9 7 7 9 6 8 6 8 9 8 7 11 9 9 10 9 6
11 12 3 7 2 5 8 14 14 8 8 9 12 13 11 13 11 9 11 11 8 7 4 3 3 4 7 6 7 8 8 7 8 8 7 8 8 11 8 8 9 9 9 11 10 8 9 8 9
3 3 4 7 7 9 13 15 13 15 8 10 13 13 12 14 14 12 12 8 7 5 3 1 4 5 6 7 7 8 8 9 9 9 10 8 8 13 9 10 8 7 10 8 8 10 8 11 10
9 6 8 7 2 6 14 13 11 11 5 10 13 10 12 12 14 15 12 9 5 4 2 3 5 6 6 8 9 9 9 11 11 11 13 12 10 11 6 9 11 10 10 4 7 8 9 9 11
8 10 10 4 4 9 15 17 14 2 12 7 12 11 11 11 12 13 13 9 6 4 4 5 7 7 7 8 8 9 9 11 10 12 11 7 7 6 10 10 10 11 11 11 8 8 7 10 10
10 4 12 13 14 16 18 17 11 6 5 4 7 6 8 11 12 12 11 10 6 5 6 8 6 7 8 10 9 8 9 10 11 11 11 11 11 11 12 12 11 10 10 12 12 6 7 2 15
13 10 11 12 13 12 3 11 10 6 2 3 4 9 10 11 10 12 14 10 6 7 8 6 7 6 6 6 8 8 9 10 10 11 11 11 14 14 15 16 12 10 11 12 12 13 12 10 9
11 10 11 11 11 13 9 9 12 6 3 4 7 8 10 11 10 11 12 2 8 6 6 3 3 6 5 7 8 9 11 11 12 12 15 14 14 16 16 13 12 8 8 11 13 13 13 10 10
9 14 15 13 10 12 10 5 6 10 8 6 5 3 4 8 10 8 4 5 6 4 6 6 7 6 8 9 10 12 13 13 13 13 14 13 11 11 10 9 8 8 9 10 10 13 14 13 12
10 13 9 4 8 5 6 8 12 8 7 6 6 2 2 4 8 3 1 7 5 6 6 8 10 11 11 12 14 14 14 14 13 12 11 11 11 10 9 9 6 6 8 10 10 12 12 15 13
8 9 7 9 9 13 5 3 9 8 5 2 4 6 4 1 8 4 4 6 9 9 9 11 12 12 13 14 15 13 12 7 8 10 11 11 12 11 8 10 10 11 12 11 10 10 10 14 12
11 8 9 9 15 10 2 4 14 6 2 3 4 6 7 3 5 5 5 4 7 9 10 10 12 12 14 15 13 10 9 13 14 12 9 10 12 10 11 13 12 13 14 13 11 11 13 13 10
6 7 6 8 5 8 10 12 12 4 7 6 9 6 5 3 6 6 6 6 6 9 10 11 13 15 15 16 14 11 12 12 12 13 10 10 11 13 10 9 8 9 10 12 13 11 11 13 7
6 7 5 3 8 8 9 6 6 8 8 9 13 13 3 3 7 6 6 8 7 10 12 12 13 15 15 14 14 12 12 12 11 12 11 10 10 12 9 6 10 10 10 11 12 14 12 11 8
7 8 7 6 8 7 7 9 8 3 7 8 10 5 4 5 7 8 9 9 8 11 12 13 13 14 14 14 14 13 10 9 9 12 14 15 13 5 8 10 11 11 11 10 11 14 10 7 10
Wind_Direction
241 227 238 266 5 221 87 95 66 34 71 43 41 56 53 39 50 76 115 105 141 97 114 136 119 115 111 111 113 111 108 110 113 119 131 133 129 126 123 120 115 113 109 106 99 84 68 58 47
283 272 240 238 28 308 68 72 69 61 79 138 70 86 82 64 73 86 101 90 77 111 130 122 115 112 107 101 101 105 112 123 136 145 143 136 135 138 143 148 152 154 153 148 146 139 116 39 6
264 266 273 167 173 104 86 80 68 77 52 14 101 45 47 92 48 98 101 119 104 142 104 114 125 124 130 134 141 145 148 158 156 177 200 267 258 200 190 196 219 226 243 244 247 249 254 272 292
271 235 237 50 69 73 78 72 94 97 108 66 126 99 85 27 82 88 94 143 151 116 92 114 127 149 159 157 151 155 153 168 185 208 227 229 245 256 261 263 267 271 272 273 278 285 287 282 281
241 264 232 106 88 70 67 61 28 66 56 83 96 86 91 89 102 106 107 86 66 83 115 127 136 146 152 162 168 183 191 197 213 222 246 267 280 283 282 281 281 279 280 281 281 279 273 271 275
278 271 33 80 94 88 78 74 84 73 93 109 104 88 85 125 120 123 123 94 83 78 112 137 138 147 162 168 181 194 210 230 240 244 251 260 265 267 270 270 270 275 277 280 279 277 274 270 267
281 290 177 131 123 113 81 334 60 62 78 78 127 105 119 117 113 117 103 113 118 119 114 146 142 146 160 167 181 196 210 230 239 250 251 255 256 257 256 254 257 258 264 268 272 271 267 264 261
288 293 238 111 234 93 108 79 111 88 78 88 126 130 137 117 127 125 115 114 111 107 124 134 176 167 174 159 165 191 214 228 236 243 246 252 258 252 240 241 233 241 252 260 265 266 264 258 252
266 278 168 53 52 124 142 115 72 106 126 108 36 81 105 136 133 125 128 142 123 98 59 25 69 96 42 90 144 194 211 218 227 228 225 233 245 260 224 219 142 209 242 255 256 256 257 253 248
263 276 57 19 122 111 155 133 126 160 134 116 105 101 125 142 139 137 164 90 80 84 72 43 36 67 79 70 83 166 180 200 327 344 341 273 336 312 321 289 212 223 236 254 247 244 245 243 248
258 16 69 98 18 113 139 142 155 180 161 146 139 141 151 157 165 154 136 77 69 88 92 110 97 61 15 24 319 21 33 7 48 41 356 355 327 18 300 313 196 251 206 259 208 240 226 257 288
266 81 319 93 104 252 151 172 166 259 187 137 142 149 158 167 162 117 121 101 97 109 109 92 89 86 30 11 18 54 61 6 39 24 26 4 339 2 356 342 340 322 336 338 284 300 303 321 299
238 131 176 174 225 269 123 207 229 184 84 46 124 149 166 179 156 114 98 80 109 118 93 100 82 76 73 31 47 29 347 39 333 14 44 355 336 18 329 344 317 337 330 322 331 319 329 312 291
83 167 181 203 217 99 264 199 292 138 140 182 133 176 183 176 158 143 152 133 115 111 113 104 102 84 90 60 27 331 40 335 344 347 22 337 345 14 315 319 351 313 327 334 318 315 318 308 310
181 228 193 215 197 218 266 256 197 175 182 191 185 193 194 180 169 189 150 132 132 112 102 99 114 83 33 14 353 340 348 333 327 330 330 324 331 328 334 311 317 328 358 313 313 310 303 295 297
252 252 234 146 188 157 240 285 231 161 188 207 195 202 197 178 196 185 134 128 135 131 114 69 23 28 40 28 328 328 322 334 306 318 317 314 312 321 312 316 317 1 311 317 312 307 307 303 330
185 266 154 159 196 276 214 275 114 170 195 230 217 215 192 200 212 162 154 152 146 120 112 105 23 355 351 337 325 303 293 289 302 291 307 329 330 312 314 304 317 343 308 297 312 351 352 328 326
64 358 164 274 150 220 261 258 251 182 225 233 246 216 208 207 189 167 172 150 140 150 137 320 318 325 334 302 278 272 305 302 310 322 301 310 318 303 333 316 300 315 292 303 324 331 323 313 269
345 313 273 282 18 284 283 290 310 295 247 255 250 219 220 214 186 162 188 166 180 189 240 296 321 305 307 297 314 296 314 318 308 305 301 302 274 274 315 303 309 307 288 302 287 298 299 287 290
293 288 286 331 204 260 278 288 281 290 291 289 263 215 213 204 199 172 197 203 212 240 279 285 282 291 306 304 322 314 299 288 294 287 281 321 63 299 313 327 309 307 308 291 281 273 263 269 278
281 309 342 321 316 281 264 262 218 142 302 278 272 269 212 215 199 183 213 228 249 276 288 273 291 337 320 321 302 302 313 303 304 326 327 319 338 320 307 312 294 293 286 285 290 285 271 227 276
312 14 310 296 295 294 30 296 129 98 170 186 249 250 249 222 197 207 211 226 241 268 290 346 358 330 324 353 332 347 298 307 334 300 309 326 312 307 302 280 286 299 299 292 284 270 283 288 281
0 321 293 293 284 281 207 276 114 163 103 75 205 222 225 253 218 212 230 49 7 338 322 319 327 321 337 336 333 321 324 325 315 314 314 311 294 276 291 303 296 319 342 329 318 310 291 279 275
299 295 285 249 243 232 88 351 76 42 22 10 55 6 240 234 241 220 86 14 279 319 336 325 325 306 316 318 318 317 311 316 309 309 298 289 302 306 305 342 346 331 316 309 309 302 295 284 284
334 347 312 258 214 339 86 299 60 72 44 20 18 49 190 227 249 196 325 267 331 301 319 316 324 320 320 313 314 316 316 308 302 307 311 309 309 315 317 326 303 292 283 279 280 288 284 280 280
309 329 323 324 323 331 199 307 83 80 62 50 1 339 314 244 346 336 307 341 312 336 327 325 322 315 319 310 316 315 317 326 318 317 319 313 305 297 299 305 299 297 293 294 292 286 283 279 280
355 323 4 289 264 257 314 104 131 140 173 193 322 352 319 293 304 274 277 287 329 322 318 320 305 304 319 320 315 317 322 317 310 309 303 292 293 299 300 313 310 308 301 290 291 281 282 284 279
282 353 254 208 288 313 344 308 78 58 24 24 346 302 223 243 278 273 305 291 313 318 303 314 329 324 322 320 318 335 324 313 311 309 299 299 293 293 307 307 317 310 310 298 289 279 286 291 287
303 250 203 312 295 316 300 34 37 31 16 338 319 314 1 249 268 287 317 319 329 309 318 330 328 326 322 326 334 320 314 305 315 312 302 298 304 296 306 302 291 281 280 279 286 282 280 286 275
293 304 331 298 290 268 309 296 58 10 334 349 319 346 11 341 325 316 312 328 322 326 333 331 330 323 326 334 327 322 310 314 312 301 300 300 290 337 294 288 275 271 267 271 281 282 280 278 274